Content
SEND FEEDBACK

Daily
Averages
Monthly
Summary
United States of America

CHESTERFIELD, MISSOURI


Home > North America > United States > Missouri
Elevation: 170 meters     Latitude: 38 41N     Longitude: 090 31W

WEATHER
 
SELECT A DAY
Number of Records: 201,471;   Date Range: 1/1/95 - 4/16/14
 
SHARE

PRINT THIS DATA

[ ← Previous Day ]
WEATHER ALMANAC - 17 FEBRUARY, 2013
[ Next Day → ]
[ °F ]   °C
Weather ElementAverageHighLow
Temperature2.6 °C8.9 °C (3:51 pm)-5 °C (5:51 am)
Dewpoint-6.8 °C-1.1 °C (8:51 pm)-10.6 °C (1:51 am)
Humidity52.2 %75 % (6:51 am)33 % (2:51 pm)
Barometer1020 hPa1023.4 hPa (5:51 am)1013.9 hPa (11:51 pm)
Wind Speed17.9 km/h27.8 km/h (2:51 pm)
Wind Gust40.7 km/h (6:51 pm)
Weather ElementAverage
Visibility16.1 km
Wind DirectionESE (111.4 °)

Weather ElementTotal
Precipitation---
Heating Degree Days16.4 (Base 18.3)
Averaged from 22 records on 17 February, 2013
WEATHER CONDITIONS BREAKOUT
WIND DIRECTION BREAKOUT
WEATHER BY HOUR - 17 FEBRUARY, 2013
[ °F ]   °C
Local TimeTemperatureDewpointHumidityBarometerVisibilityWind DirectionWind SpeedGust SpeedPrecipitationEventsConditions
1:51 AM-4.4 °C-10.6 °C62 %1022.7 hPa16.1 kmNE (50°)5.6 km/hClear
2:51 AM-4.4 °C-9.4 °C69 %1022.7 hPa16.1 kmCalmMostly Cloudy
3:51 AM-3.9 °C-8.9 °C69 %1022.7 hPa16.1 kmCalmMostly Cloudy
4:51 AM-3.9 °C-10.6 °C60 %1022.7 hPa16.1 kmEast (100°)7.4 km/hMostly Cloudy
5:51 AM-5 °C-10 °C68 %1023.4 hPa16.1 kmEast (90°)7.4 km/hMostly Cloudy
6:51 AM-3.9 °C-7.8 °C75 %1023.4 hPa16.1 kmEast (100°)7.4 km/hMostly Cloudy
7:51 AM-2.8 °C-8.3 °C66 %1023.4 hPa16.1 kmESE (110°)16.7 km/hMostly Cloudy
8:51 AM-1.1 °C-8.9 °C56 %1023.4 hPa16.1 kmESE (120°)20.4 km/hMostly Cloudy
9:51 AM1.1 °C-9.4 °C46 %1023.4 hPa16.1 kmESE (120°)20.4 km/hMostly Cloudy
10:51 AM3.3 °C-9.4 °C39 %1022.7 hPa16.1 kmSE (140°)20.4 km/hMostly Cloudy
11:51 AM5 °C-8.9 °C36 %1021.7 hPa16.1 kmESE (120°)22.2 km/hMostly Cloudy
12:51 PM6.7 °C-8.3 °C34 %1020.3 hPa16.1 kmSE (130°)25.9 km/h38.9 km/hScattered Clouds
1:51 PM7.2 °C-7.8 °C34 %1019.3 hPa16.1 kmSE (130°)24.1 km/h35.2 km/hMostly Cloudy
2:51 PM8.3 °C-7.2 °C33 %1018.3 hPa16.1 kmSE (140°)27.8 km/h37 km/hScattered Clouds
3:51 PM8.9 °C-6.7 °C33 %1017.6 hPa16.1 kmSE (130°)27.8 km/h38.9 km/hPartly Cloudy
4:51 PM8.3 °C-5.6 °C37 %1016.6 hPa16.1 kmSE (130°)24.1 km/h38.9 km/hScattered Clouds
5:51 PM7.8 °C-5 °C40 %1016.3 hPa16.1 kmSE (140°)20.4 km/hMostly Cloudy
6:51 PM6.7 °C-2.2 °C53 %1016.6 hPa16.1 kmSE (140°)24.1 km/h40.7 km/hMostly Cloudy
7:51 PM6.7 °C-1.7 °C55 %1016.3 hPa16.1 kmSSE (150°)25.9 km/hMostly Cloudy
8:51 PM6.1 °C-1.1 °C60 %1015.9 hPa16.1 kmSSE (150°)24.1 km/h37 km/hMostly Cloudy
9:51 PM5.6 °C-1.1 °C62 %1015.2 hPa16.1 kmSE (130°)22.2 km/hMostly Cloudy
11:51 PM5 °C-1.7 °C62 %1013.9 hPa16.1 kmSE (130°)16.7 km/hMostly Cloudy
Hourly data recorded from KSTL, located 14.63 kilometers away from Chesterfield, Missouri







STORIES FROM OUR PARTNERS